Time,TemperatureF,DewpointF,PressureIn,WindDirection,WindDirectionDegrees,WindSpeedMPH,WindSpeedGustMPH,Humidity,HourlyPrecipIn,Conditions,Clouds,dailyrainin,SoftwareType,DateUTC
2013-01-17 00:05:00,37.0,-99.9,29.91,WSW,253,6.0,12.0,-999,-99.99,,,-99.99,,2013-01-17 05:05:00,
2013-01-17 00:12:00,38.0,-99.9,29.89,WSW,250,6.0,11.0,-999,-99.99,,,-99.99,,2013-01-17 05:12:00,
2013-01-17 00:22:00,38.0,-99.9,29.91,WSW,251,9.0,13.0,-999,-99.99,,,-99.99,,2013-01-17 05:22:00,
2013-01-17 00:33:00,38.0,-99.9,29.91,WSW,247,9.0,13.0,-999,-99.99,,,-99.99,,2013-01-17 05:33:00,
2013-01-17 00:43:00,38.0,-99.9,29.91,WSW,258,6.0,12.0,-999,-99.99,,,-99.99,,2013-01-17 05:43:00,
2013-01-17 00:53:00,38.0,-99.9,29.91,WSW,255,7.0,11.0,-999,-99.99,,,-99.99,,2013-01-17 05:53:00,
2013-01-17 01:03:00,38.0,-99.9,29.91,WSW,246,6.0,9.0,-999,-99.99,,,-99.99,,2013-01-17 06:03:00,
2013-01-17 01:12:00,38.0,-99.9,29.93,SW,236,3.0,8.0,-999,-99.99,,,-99.99,,2013-01-17 06:12:00,
2013-01-17 01:22:00,38.0,-99.9,29.92,WSW,240,3.0,6.0,-999,-99.99,,,-99.99,,2013-01-17 06:22:00,
2013-01-17 01:33:00,38.0,-99.9,29.90,West,260,4.0,8.0,-999,-99.99,,,-99.99,,2013-01-17 06:33:00,
2013-01-17 01:42:00,38.0,-99.9,29.91,WSW,252,5.0,11.0,-999,-99.99,,,-99.99,,2013-01-17 06:42:00,
2013-01-17 01:53:00,38.0,-99.9,29.91,WSW,254,6.0,12.0,-999,-99.99,,,-99.99,,2013-01-17 06:53:00,
2013-01-17 02:02:00,38.0,-99.9,29.92,SW,234,4.0,9.0,-999,-99.99,,,-99.99,,2013-01-17 07:02:00,
2013-01-17 02:12:00,39.0,-99.9,29.90,West,260,5.0,9.0,-999,-99.99,,,-99.99,,2013-01-17 07:12:00,
2013-01-17 02:22:00,38.0,-99.9,29.92,WSW,247,3.0,7.0,-999,-99.99,,,-99.99,,2013-01-17 07:22:00,
2013-01-17 02:33:00,39.0,-99.9,29.92,West,261,6.0,10.0,-999,-99.99,,,-99.99,,2013-01-17 07:33:00,
2013-01-17 02:43:00,39.0,-99.9,29.93,WSW,239,8.0,13.0,-999,-99.99,,,-99.99,,2013-01-17 07:43:00,
2013-01-17 02:53:00,39.0,-99.9,29.93,WSW,242,5.0,11.0,-999,-99.99,,,-99.99,,2013-01-17 07:53:00,
2013-01-17 03:02:00,39.0,-99.9,29.92,WSW,241,4.0,7.0,-999,-99.99,,,-99.99,,2013-01-17 08:02:00,
2013-01-17 03:12:00,39.0,-99.9,29.93,SSW,213,6.0,11.0,-999,-99.99,,,-99.99,,2013-01-17 08:12:00,
2013-01-17 03:22:00,38.0,-99.9,29.93,WSW,248,4.0,9.0,-999,-99.99,,,-99.99,,2013-01-17 08:22:00,
2013-01-17 03:32:00,39.0,-99.9,29.93,WSW,255,4.0,9.0,-999,-99.99,,,-99.99,,2013-01-17 08:32:00,
2013-01-17 03:44:00,39.0,-99.9,29.93,WSW,248,5.0,11.0,-999,-99.99,,,-99.99,,2013-01-17 08:44:00,
2013-01-17 03:53:00,39.0,-99.9,29.93,WSW,242,4.0,6.0,-999,-99.99,,,-99.99,,2013-01-17 08:53:00,
2013-01-17 04:03:00,39.0,-99.9,29.92,WSW,248,5.0,11.0,-999,-99.99,,,-99.99,,2013-01-17 09:03:00,
2013-01-17 04:12:00,39.0,-99.9,29.92,WSW,249,6.0,11.0,-999,-99.99,,,-99.99,,2013-01-17 09:12:00,
2013-01-17 04:22:00,39.0,-99.9,29.93,WSW,249,5.0,12.0,-999,-99.99,,,-99.99,,2013-01-17 09:22:00,
2013-01-17 04:33:00,40.0,-99.9,29.93,WSW,254,6.0,10.0,-999,-99.99,,,-99.99,,2013-01-17 09:33:00,
2013-01-17 04:43:00,40.0,-99.9,29.92,West,277,9.0,13.0,-999,-99.99,,,-99.99,,2013-01-17 09:43:00,
2013-01-17 04:53:00,40.0,-99.9,29.91,West,276,8.0,12.0,-999,-99.99,,,-99.99,,2013-01-17 09:53:00,
2013-01-17 05:02:00,40.0,-99.9,29.92,West,271,7.0,11.0,-999,-99.99,,,-99.99,,2013-01-17 10:02:00,
2013-01-17 05:12:00,40.0,-99.9,29.91,West,273,7.0,10.0,-999,-99.99,,,-99.99,,2013-01-17 10:12:00,
2013-01-17 05:22:00,40.0,-99.9,29.92,West,277,7.0,11.0,-999,-99.99,,,-99.99,,2013-01-17 10:22:00,
2013-01-17 05:33:00,40.0,-99.9,29.92,WNW,289,11.0,15.0,-999,-99.99,,,-99.99,,2013-01-17 10:33:00,
2013-01-17 05:43:00,40.0,-99.9,29.92,WSW,258,5.0,9.0,-999,-99.99,,,-99.99,,2013-01-17 10:43:00,
2013-01-17 05:53:00,40.0,-99.9,29.93,WSW,249,4.0,7.0,-999,-99.99,,,-99.99,,2013-01-17 10:53:00,
2013-01-17 06:03:00,40.0,-99.9,29.94,WNW,292,9.0,13.0,-999,-99.99,,,-99.99,,2013-01-17 11:03:00,
2013-01-17 06:12:00,40.0,-99.9,29.95,West,279,6.0,9.0,-999,-99.99,,,-99.99,,2013-01-17 11:12:00,
2013-01-17 06:23:00,40.0,-99.9,29.94,West,280,6.0,8.0,-999,-99.99,,,-99.99,,2013-01-17 11:23:00,
2013-01-17 06:33:00,40.0,-99.9,29.95,West,268,7.0,10.0,-999,-99.99,,,-99.99,,2013-01-17 11:33:00,
2013-01-17 06:43:00,40.0,-99.9,29.96,West,274,7.0,9.0,-999,-99.99,,,-99.99,,2013-01-17 11:43:00,
2013-01-17 06:53:00,40.0,-99.9,29.96,West,275,7.0,9.0,-999,-99.99,,,-99.99,,2013-01-17 11:53:00,
2013-01-17 07:03:00,40.0,-99.9,29.96,West,270,7.0,11.0,-999,-99.99,,,-99.99,,2013-01-17 12:03:00,
2013-01-17 07:12:00,39.0,-99.9,29.98,West,268,8.0,10.0,-999,-99.99,,,-99.99,,2013-01-17 12:12:00,
2013-01-17 07:23:00,39.0,-99.9,29.99,West,269,6.0,9.0,-999,-99.99,,,-99.99,,2013-01-17 12:23:00,
2013-01-17 07:33:00,39.0,-99.9,29.98,West,269,6.0,9.0,-999,-99.99,,,-99.99,,2013-01-17 12:33:00,
2013-01-17 07:43:00,39.0,-99.9,30.00,WNW,292,6.0,8.0,-999,-99.99,,,-99.99,,2013-01-17 12:43:00,
2013-01-17 07:53:00,39.0,-99.9,30.00,WNW,293,8.0,10.0,-999,-99.99,,,-99.99,,2013-01-17 12:53:00,
2013-01-17 08:03:00,39.0,-99.9,30.00,WNW,301,4.0,7.0,-999,-99.99,,,-99.99,,2013-01-17 13:03:00,
2013-01-17 08:13:00,39.0,-99.9,30.00,NW,304,7.0,11.0,-999,-99.99,,,-99.99,,2013-01-17 13:13:00,
2013-01-17 08:23:00,39.0,-99.9,30.01,NW,307,7.0,11.0,-999,-99.99,,,-99.99,,2013-01-17 13:23:00,
2013-01-17 08:33:00,40.0,-99.9,30.02,WNW,293,7.0,11.0,-999,-99.99,,,-99.99,,2013-01-17 13:33:00,
2013-01-17 08:43:00,39.0,-99.9,30.04,West,275,6.0,8.0,-999,-99.99,,,-99.99,,2013-01-17 13:43:00,
2013-01-17 08:53:00,40.0,-99.9,30.04,WNW,284,6.0,9.0,-999,-99.99,,,-99.99,,2013-01-17 13:53:00,
2013-01-17 09:03:00,40.0,-99.9,30.04,NW,310,6.0,9.0,-999,-99.99,,,-99.99,,2013-01-17 14:03:00,
2013-01-17 09:13:00,40.0,-99.9,30.04,NW,313,9.0,13.0,-999,-99.99,,,-99.99,,2013-01-17 14:13:00,
2013-01-17 09:23:00,40.0,-99.9,30.05,WNW,292,4.0,6.0,-999,-99.99,,,-99.99,,2013-01-17 14:23:00,
2013-01-17 09:33:00,39.0,-99.9,30.05,WNW,285,5.0,8.0,-999,-99.99,,,-99.99,,2013-01-17 14:33:00,
2013-01-17 09:43:00,40.0,-99.9,30.05,WSW,246,3.0,6.0,-999,-99.99,,,-99.99,,2013-01-17 14:43:00,
2013-01-17 09:53:00,40.0,-99.9,30.06,West,261,6.0,9.0,-999,-99.99,,,-99.99,,2013-01-17 14:53:00,
2013-01-17 10:03:00,40.0,-99.9,30.06,WSW,247,4.0,6.0,-999,-99.99,,,-99.99,,2013-01-17 15:03:00,
2013-01-17 10:13:00,40.0,-99.9,30.06,West,270,8.0,11.0,-999,-99.99,,,-99.99,,2013-01-17 15:13:00,
2013-01-17 10:23:00,40.0,-99.9,30.06,West,281,8.0,12.0,-999,-99.99,,,-99.99,,2013-01-17 15:23:00,
2013-01-17 10:33:00,41.0,-99.9,30.05,WNW,289,6.0,10.0,-999,-99.99,,,-99.99,,2013-01-17 15:33:00,
2013-01-17 10:44:00,41.0,-99.9,30.05,NW,314,8.0,12.0,-999,-99.99,,,-99.99,,2013-01-17 15:44:00,
2013-01-17 10:53:00,41.0,-99.9,30.04,NW,312,10.0,14.0,-999,-99.99,,,-99.99,,2013-01-17 15:53:00,
2013-01-17 11:03:00,41.0,-99.9,30.05,NW,315,11.0,15.0,-999,-99.99,,,-99.99,,2013-01-17 16:03:00,
2013-01-17 11:13:00,41.0,-99.9,30.06,NW,309,12.0,19.0,-999,-99.99,,,-99.99,,2013-01-17 16:13:00,
2013-01-17 11:23:00,41.0,-99.9,30.05,NW,320,11.0,17.0,-999,-99.99,,,-99.99,,2013-01-17 16:23:00,
2013-01-17 11:34:00,42.0,-99.9,30.04,NW,313,9.0,13.0,-999,-99.99,,,-99.99,,2013-01-17 16:34:00,
2013-01-17 11:44:00,41.0,-99.9,30.05,NW,315,12.0,17.0,-999,-99.99,,,-99.99,,2013-01-17 16:44:00,
2013-01-17 11:53:00,41.0,-99.9,30.05,NW,308,9.0,13.0,-999,-99.99,,,-99.99,,2013-01-17 16:53:00,
2013-01-17 12:03:00,41.0,-99.9,30.05,NW,316,10.0,15.0,-999,-99.99,,,-99.99,,2013-01-17 17:03:00,
2013-01-17 12:13:00,42.0,-99.9,30.04,NW,318,10.0,16.0,-999,-99.99,,,-99.99,,2013-01-17 17:13:00,
2013-01-17 12:23:00,42.0,-99.9,30.03,NW,317,8.0,12.0,-999,-99.99,,,-99.99,,2013-01-17 17:23:00,
2013-01-17 12:33:00,42.0,-99.9,30.04,NW,322,11.0,13.0,-999,-99.99,,,-99.99,,2013-01-17 17:33:00,
2013-01-17 12:43:00,43.0,-99.9,30.05,WNW,290,9.0,12.0,-999,-99.99,,,-99.99,,2013-01-17 17:43:00,
2013-01-17 12:54:00,43.0,-99.9,30.05,NW,313,8.0,13.0,-999,-99.99,,,-99.99,,2013-01-17 17:54:00,
2013-01-17 13:04:00,43.0,-99.9,30.04,NW,313,6.0,9.0,-999,-99.99,,,-99.99,,2013-01-17 18:04:00,
2013-01-17 13:13:00,43.0,-99.9,30.03,NNW,332,10.0,14.0,-999,-99.99,,,-99.99,,2013-01-17 18:13:00,
2013-01-17 13:23:00,43.0,-99.9,30.03,NW,326,11.0,15.0,-999,-99.99,,,-99.99,,2013-01-17 18:23:00,
2013-01-17 13:34:00,43.0,-99.9,30.03,NW,325,11.0,14.0,-999,-99.99,,,-99.99,,2013-01-17 18:34:00,
2013-01-17 13:44:00,43.0,-99.9,30.03,NW,318,10.0,13.0,-999,-99.99,,,-99.99,,2013-01-17 18:44:00,
2013-01-17 13:54:00,43.0,-99.9,30.03,NW,326,12.0,14.0,-999,-99.99,,,-99.99,,2013-01-17 18:54:00,
2013-01-17 14:04:00,43.0,-99.9,30.03,NW,320,10.0,14.0,-999,-99.99,,,-99.99,,2013-01-17 19:04:00,
2013-01-17 14:13:00,42.0,-99.9,30.03,NNW,338,13.0,16.0,-999,-99.99,,,-99.99,,2013-01-17 19:13:00,
2013-01-17 14:23:00,42.0,-99.9,30.02,North,349,15.0,18.0,-999,-99.99,,,-99.99,,2013-01-17 19:23:00,
2013-01-17 14:33:00,43.0,-99.9,30.02,NW,322,10.0,17.0,-999,-99.99,,,-99.99,,2013-01-17 19:33:00,
2013-01-17 14:43:00,43.0,-99.9,30.02,NNW,338,14.0,17.0,-999,-99.99,,,-99.99,,2013-01-17 19:43:00,
2013-01-17 14:54:00,43.0,-99.9,30.02,NW,324,11.0,15.0,-999,-99.99,,,-99.99,,2013-01-17 19:54:00,
2013-01-17 15:03:00,43.0,-99.9,30.02,NNW,340,14.0,17.0,-999,-99.99,,,-99.99,,2013-01-17 20:03:00,
2013-01-17 15:13:00,43.0,-99.9,30.02,NNW,329,12.0,15.0,-999,-99.99,,,-99.99,,2013-01-17 20:13:00,
2013-01-17 15:23:00,43.0,-99.9,30.03,NNW,345,14.0,16.0,-999,-99.99,,,-99.99,,2013-01-17 20:23:00,
2013-01-17 15:34:00,43.0,-99.9,30.03,NNW,340,13.0,15.0,-999,-99.99,,,-99.99,,2013-01-17 20:34:00,
2013-01-17 15:44:00,42.0,-99.9,30.02,NW,325,11.0,13.0,-999,-99.99,,,-99.99,,2013-01-17 20:44:00,
2013-01-17 15:54:00,42.0,-99.9,30.02,NW,325,7.0,10.0,-999,-99.99,,,-99.99,,2013-01-17 20:54:00,
2013-01-17 16:03:00,42.0,-99.9,30.03,NW,317,8.0,13.0,-999,-99.99,,,-99.99,,2013-01-17 21:03:00,
2013-01-17 16:13:00,42.0,-99.9,30.04,NW,322,9.0,15.0,-999,-99.99,,,-99.99,,2013-01-17 21:13:00,
2013-01-17 16:24:00,42.0,-99.9,30.04,NW,319,7.0,12.0,-999,-99.99,,,-99.99,,2013-01-17 21:24:00,
2013-01-17 16:34:00,42.0,-99.9,30.04,NW,324,10.0,12.0,-999,-99.99,,,-99.99,,2013-01-17 21:34:00,
2013-01-17 16:43:00,42.0,-99.9,30.04,NW,324,9.0,10.0,-999,-99.99,,,-99.99,,2013-01-17 21:43:00,
2013-01-17 16:53:00,42.0,-99.9,30.04,NW,319,9.0,12.0,-999,-99.99,,,-99.99,,2013-01-17 21:53:00,
2013-01-17 17:04:00,42.0,-99.9,30.04,NW,319,8.0,10.0,-999,-99.99,,,-99.99,,2013-01-17 22:04:00,
2013-01-17 17:12:00,42.0,-99.9,30.06,North,351,11.0,13.0,-999,-99.99,,,-99.99,,2013-01-17 22:12:00,
2013-01-17 17:23:00,42.0,-99.9,30.06,North,353,9.0,10.0,-999,-99.99,,,-99.99,,2013-01-17 22:23:00,
2013-01-17 17:33:00,42.0,-99.9,30.05,North,349,6.0,8.0,-999,-99.99,,,-99.99,,2013-01-17 22:33:00,
2013-01-17 17:43:00,42.0,-99.9,30.06,North,3,7.0,9.0,-999,-99.99,,,-99.99,,2013-01-17 22:43:00,
2013-01-17 17:53:00,42.0,-99.9,30.07,North,355,7.0,9.0,-999,-99.99,,,-99.99,,2013-01-17 22:53:00,
2013-01-17 18:03:00,42.0,-99.9,30.07,North,357,8.0,9.0,-999,-99.99,,,-99.99,,2013-01-17 23:03:00,
2013-01-17 18:12:00,42.0,-99.9,30.05,North,-999,6.0,7.0,-999,-99.99,,,-99.99,,2013-01-17 23:12:00,
2013-01-17 18:23:00,42.0,-99.9,30.06,North,1,7.0,9.0,-999,-99.99,,,-99.99,,2013-01-17 23:23:00,
2013-01-17 18:33:00,42.0,-99.9,30.07,North,2,6.0,7.0,-999,-99.99,,,-99.99,,2013-01-17 23:33:00,
2013-01-17 18:43:00,42.0,-99.9,30.07,North,4,6.0,7.0,-999,-99.99,,,-99.99,,2013-01-17 23:43:00,
2013-01-17 18:53:00,42.0,-99.9,30.07,North,3,7.0,9.0,-999,-99.99,,,-99.99,,2013-01-17 23:53:00,
2013-01-17 19:03:00,42.0,-99.9,30.06,North,7,6.0,7.0,-999,-99.99,,,-99.99,,2013-01-18 00:03:00,
2013-01-17 19:13:00,42.0,-99.9,30.07,NNW,333,6.0,7.0,-999,-99.99,,,-99.99,,2013-01-18 00:13:00,
2013-01-17 19:23:00,42.0,-99.9,30.08,NNW,348,5.0,6.0,-999,-99.99,,,-99.99,,2013-01-18 00:23:00,
2013-01-17 19:33:00,42.0,-99.9,30.08,NNW,348,5.0,6.0,-999,-99.99,,,-99.99,,2013-01-18 00:33:00,
2013-01-17 19:43:00,41.0,-99.9,30.07,North,2,4.0,5.0,-999,-99.99,,,-99.99,,2013-01-18 00:43:00,
2013-01-17 19:53:00,41.0,-99.9,30.07,NW,322,6.0,9.0,-999,-99.99,,,-99.99,,2013-01-18 00:53:00,
2013-01-17 20:03:00,41.0,-99.9,30.07,NW,322,5.0,6.0,-999,-99.99,,,-99.99,,2013-01-18 01:03:00,
2013-01-17 20:13:00,41.0,-99.9,30.07,NNW,333,4.0,4.0,-999,-99.99,,,-99.99,,2013-01-18 01:13:00,
2013-01-17 20:23:00,41.0,-99.9,30.06,North,357,4.0,5.0,-999,-99.99,,,-99.99,,2013-01-18 01:23:00,
2013-01-17 20:33:00,41.0,-99.9,30.07,North,7,6.0,6.0,-999,-99.99,,,-99.99,,2013-01-18 01:33:00,
2013-01-17 20:43:00,41.0,-99.9,30.06,NNE,13,9.0,11.0,-999,-99.99,,,-99.99,,2013-01-18 01:43:00,
2013-01-17 20:53:00,40.0,-99.9,30.06,North,6,10.0,12.0,-999,-99.99,,,-99.99,,2013-01-18 01:53:00,
2013-01-17 21:03:00,40.0,-99.9,30.06,North,10,11.0,13.0,-999,-99.99,,,-99.99,,2013-01-18 02:03:00,
2013-01-17 21:12:00,40.0,-99.9,30.04,North,6,11.0,13.0,-999,-99.99,,,-99.99,,2013-01-18 02:12:00,
2013-01-17 21:23:00,40.0,-99.9,30.04,North,3,13.0,16.0,-999,-99.99,,,-99.99,,2013-01-18 02:23:00,
2013-01-17 21:33:00,39.0,-99.9,30.04,North,3,14.0,16.0,-999,-99.99,,,-99.99,,2013-01-18 02:33:00,
2013-01-17 21:43:00,39.0,-99.9,30.05,North,6,12.0,15.0,-999,-99.99,,,-99.99,,2013-01-18 02:43:00,
2013-01-17 21:53:00,39.0,-99.9,30.04,North,6,12.0,15.0,-999,-99.99,,,-99.99,,2013-01-18 02:53:00,
2013-01-17 22:03:00,39.0,-99.9,30.04,North,6,12.0,13.0,-999,-99.99,,,-99.99,,2013-01-18 03:03:00,
2013-01-17 22:13:00,39.0,-99.9,30.04,North,8,11.0,15.0,-999,-99.99,,,-99.99,,2013-01-18 03:13:00,
2013-01-17 22:23:00,38.0,-99.9,30.04,North,11,11.0,14.0,-999,-99.99,,,-99.99,,2013-01-18 03:23:00,
2013-01-17 22:33:00,38.0,-99.9,30.03,North,4,12.0,15.0,-999,-99.99,,,-99.99,,2013-01-18 03:33:00,
2013-01-17 22:43:00,38.0,-99.9,30.01,North,5,16.0,19.0,-999,-99.99,,,-99.99,,2013-01-18 03:43:00,
2013-01-17 22:53:00,38.0,-99.9,30.01,North,357,15.0,17.0,-999,-99.99,,,-99.99,,2013-01-18 03:53:00,
2013-01-17 23:03:00,38.0,-99.9,30.01,North,4,14.0,17.0,-999,-99.99,,,-99.99,,2013-01-18 04:03:00,
2013-01-17 23:12:00,38.0,-99.9,29.99,North,5,12.0,15.0,-999,-99.99,,,-99.99,,2013-01-18 04:12:00,
2013-01-17 23:22:00,38.0,-99.9,30.02,NNE,15,11.0,13.0,-999,-99.99,,,-99.99,,2013-01-18 04:22:00,
2013-01-17 23:33:00,37.0,-99.9,30.04,NNE,12,8.0,9.0,-999,-99.99,,,-99.99,,2013-01-18 04:33:00,
2013-01-17 23:43:00,37.0,-99.9,30.04,NNE,27,10.0,13.0,-999,-99.99,,,-99.99,,2013-01-18 04:43:00,
2013-01-17 23:53:00,37.0,-99.9,30.03,NNE,17,10.0,13.0,-999,-99.99,,,-99.99,,2013-01-18 04:53:00,